When you browse on this site, cookies collect data to enhance your experience and personalize the content and advertising you see.
Visit our Privacy Policy to learn more. By continuing to use the site, you agree to this use of cookies and data.
  • In Spain
  • List of Countries
  • For 7 days
  • Water Temperature
  • Satellite Maps
  • Weather Map
  • Weather Widgets
  • user-avatar
    Login

    Hourly Weather Hadera

    Today, 21 July, Sunday

    Time Temperature Precipitation Wind Pressure Humidity
    00:00 +24°C° 0 mm 2 mps 714 mmHg 65%
    01:00 +24°C° 0 mm 2 mps 714 mmHg 61%
    02:00 +24°C° 0 mm 2 mps 714 mmHg 58%
    03:00 +23°C° 0 mm 2 mps 713 mmHg 58%
    04:00 +23°C° 0 mm 2 mps 713 mmHg 58%
    05:00 +23°C° 0 mm 2 mps 713 mmHg 58%
    06:00 +26°C° 0 mm 2 mps 713 mmHg 51%
    07:00 +28°C° 0 mm 2 mps 714 mmHg 44%
    08:00 +31°C° 0 mm 2 mps 714 mmHg 38%
    09:00 +31°C° 0 mm 3 mps 714 mmHg 38%
    10:00 +33°C° 0 mm 4 mps 714 mmHg 39%
    11:00 +34°C° 0 mm 4 mps 715 mmHg 40%
    12:00 +34°C° 0 mm 4 mps 714 mmHg 40%
    13:00 +34°C° 0 mm 4 mps 714 mmHg 41%
    14:00 +33°C° 0 mm 4 mps 714 mmHg 42%
    15:00 +33°C° 0 mm 4 mps 714 mmHg 41%
    16:00 +33°C° 0 mm 4 mps 713 mmHg 41%
    17:00 +32°C° 0 mm 4 mps 713 mmHg 41%
    18:00 +29°C° 0 mm 4 mps 713 mmHg 47%
    19:00 +27°C° 0 mm 3 mps 713 mmHg 54%
    20:00 +25°C° 0 mm 3 mps 713 mmHg 61%
    21:00 +25°C° 0 mm 3 mps 713 mmHg 58%
    22:00 +25°C° 0 mm 3 mps 713 mmHg 56%
    23:00 +25°C° 0 mm 2 mps 713 mmHg 53%

    Tomorrow, 22 July, Monday

    Time Temperature Precipitation Wind Pressure Humidity
    00:00 +25°C° 0 mm 2 mps 712 mmHg 53%
    01:00 +25°C° 0 mm 2 mps 712 mmHg 53%
    02:00 +24°C° 0 mm 1 mps 712 mmHg 53%
    03:00 +24°C° 0 mm 1 mps 712 mmHg 52%
    04:00 +24°C° 0 mm 1 mps 711 mmHg 52%
    05:00 +24°C° 0 mm 1 mps 711 mmHg 51%
    06:00 +26°C° 0 mm 1 mps 712 mmHg 44%
    07:00 +29°C° 0 mm 1 mps 712 mmHg 37%
    08:00 +32°C° 0 mm 1 mps 713 mmHg 29%
    09:00 +33°C° 0 mm 1 mps 713 mmHg 29%
    10:00 +34°C° 0 mm 2 mps 713 mmHg 29%
    11:00 +35°C° 0 mm 2 mps 714 mmHg 29%
    12:00 +35°C° 0 mm 2 mps 713 mmHg 30%
    13:00 +35°C° 0 mm 2 mps 713 mmHg 31%
    14:00 +34°C° 0 mm 2 mps 713 mmHg 32%
    15:00 +34°C° 0 mm 2 mps 713 mmHg 33%
    16:00 +32°C° 0 mm 2 mps 713 mmHg 34%
    17:00 +32°C° 0 mm 2 mps 712 mmHg 35%
    18:00 +30°C° 0 mm 2 mps 712 mmHg 42%
    19:00 +27°C° 0 mm 2 mps 712 mmHg 50%
    20:00 +25°C° 0 mm 2 mps 712 mmHg 58%
    21:00 +25°C° 0 mm 2 mps 712 mmHg 55%
    22:00 +25°C° 0 mm 2 mps 712 mmHg 52%
    23:00 +25°C° 0 mm 2 mps 712 mmHg 50%

    Day after tomorrow, 23 July, Tuesday

    Time Temperature Precipitation Wind Pressure Humidity
    00:00 +25°C° 0 mm 2 mps 712 mmHg 52%
    01:00 +24°C° 0 mm 2 mps 711 mmHg 54%
    02:00 +24°C° 0 mm 2 mps 711 mmHg 56%
    03:00 +24°C° 0 mm 2 mps 711 mmHg 54%
    04:00 +23°C° 0 mm 2 mps 711 mmHg 53%
    05:00 +23°C° 0 mm 1 mps 711 mmHg 51%
    06:00 +26°C° 0 mm 1 mps 711 mmHg 45%
    07:00 +29°C° 0 mm 1 mps 711 mmHg 40%
    08:00 +31°C° 0 mm 1 mps 712 mmHg 34%
    09:00 +32°C° 0 mm 1 mps 712 mmHg 33%
    10:00 +34°C° 0 mm 2 mps 712 mmHg 33%
    11:00 +34°C° 0 mm 3 mps 712 mmHg 32%
    12:00 +34°C° 0 mm 3 mps 712 mmHg 33%
    13:00 +34°C° 0 mm 3 mps 712 mmHg 34%
    14:00 +34°C° 0 mm 3 mps 712 mmHg 34%
    15:00 +34°C° 0 mm 3 mps 712 mmHg 35%
    16:00 +33°C° 0 mm 3 mps 711 mmHg 36%
    17:00 +33°C° 0 mm 3 mps 711 mmHg 37%
    18:00 +30°C° 0 mm 3 mps 711 mmHg 42%
    19:00 +28°C° 0 mm 2 mps 711 mmHg 47%
    20:00 +26°C° 0 mm 2 mps 711 mmHg 52%
    21:00 +26°C° 0 mm 2 mps 711 mmHg 50%
    22:00 +25°C° 0 mm 2 mps 711 mmHg 47%
    23:00 +25°C° 0 mm 2 mps 711 mmHg 45%

    24 July, Wednesday

    Time Temperature Precipitation Wind Pressure Humidity
    00:00 +25°C° 0 mm 2 mps 711 mmHg 44%
    01:00 +24°C° 0 mm 2 mps 711 mmHg 43%
    02:00 +24°C° 0 mm 2 mps 710 mmHg 42%
    03:00 +24°C° 0 mm 1 mps 710 mmHg 44%
    04:00 +23°C° 0 mm 1 mps 710 mmHg 45%
    05:00 +23°C° 0 mm 1 mps 710 mmHg 46%
    06:00 +26°C° 0 mm 1 mps 711 mmHg 41%
    07:00 +28°C° 0 mm 2 mps 711 mmHg 36%
    08:00 +31°C° 0 mm 2 mps 712 mmHg 31%
    09:00 +32°C° 0 mm 2 mps 712 mmHg 32%
    10:00 +33°C° 0 mm 3 mps 712 mmHg 32%
    11:00 +34°C° 0 mm 4 mps 712 mmHg 32%
    12:00 +34°C° 0 mm 4 mps 712 mmHg 33%
    13:00 +34°C° 0 mm 4 mps 712 mmHg 34%
    14:00 +34°C° 0 mm 4 mps 712 mmHg 35%
    15:00 +33°C° 0 mm 4 mps 712 mmHg 36%
    16:00 +31°C° 0 mm 3 mps 712 mmHg 36%
    17:00 +31°C° 0 mm 3 mps 711 mmHg 37%
    18:00 +29°C° 0 mm 2 mps 711 mmHg 45%
    19:00 +27°C° 0 mm 2 mps 711 mmHg 52%
    20:00 +24°C° 0 mm 2 mps 711 mmHg 60%
    21:00 +24°C° 0 mm 2 mps 711 mmHg 60%
    22:00 +24°C° 0 mm 2 mps 711 mmHg 61%
    23:00 +23°C° 0 mm 2 mps 711 mmHg 62%

    25 July, Thursday

    Time Temperature Precipitation Wind Pressure Humidity
    00:00 +23°C° 0 mm 2 mps 711 mmHg 59%
    01:00 +23°C° 0 mm 1 mps 711 mmHg 57%
    02:00 +23°C° 0 mm 1 mps 711 mmHg 55%
    03:00 +23°C° 0 mm 1 mps 711 mmHg 55%
    04:00 +23°C° 0 mm 1 mps 711 mmHg 55%
    05:00 +22°C° 0 mm 1 mps 711 mmHg 55%
    06:00 +25°C° 0 mm 1 mps 711 mmHg 50%
    07:00 +28°C° 0 mm 1 mps 712 mmHg 45%
    08:00 +30°C° 0 mm 1 mps 712 mmHg 40%
    09:00 +31°C° 0 mm 2 mps 713 mmHg 41%
    10:00 +31°C° 0 mm 2 mps 713 mmHg 42%
    11:00 +33°C° 0 mm 3 mps 713 mmHg 42%
    12:00 +33°C° 0 mm 3 mps 713 mmHg 42%
    13:00 +33°C° 0 mm 3 mps 713 mmHg 42%
    14:00 +33°C° 0 mm 3 mps 713 mmHg 42%
    15:00 +33°C° 0 mm 3 mps 713 mmHg 41%
    16:00 +33°C° 0 mm 3 mps 712 mmHg 41%
    17:00 +31°C° 0 mm 3 mps 712 mmHg 41%
    18:00 +29°C° 0 mm 2 mps 712 mmHg 48%
    19:00 +27°C° 0 mm 2 mps 712 mmHg 56%
    20:00 +25°C° 0 mm 2 mps 712 mmHg 63%
    21:00 +25°C° 0 mm 2 mps 712 mmHg 62%
    22:00 +25°C° 0 mm 2 mps 712 mmHg 61%
    23:00 +25°C° 0 mm 2 mps 712 mmHg 60%

    26 July, Friday

    Time Temperature Precipitation Wind Pressure Humidity
    00:00 +25°C° 0 mm 2 mps 712 mmHg 56%
    01:00 +25°C° 0 mm 2 mps 712 mmHg 52%
    02:00 +25°C° 0 mm 1 mps 711 mmHg 49%
    03:00 +24°C° 0 mm 1 mps 711 mmHg 48%
    04:00 +24°C° 0 mm 1 mps 711 mmHg 47%
    05:00 +24°C° 0 mm 1 mps 711 mmHg 46%
    06:00 +26°C° 0 mm 1 mps 712 mmHg 42%
    07:00 +29°C° 0 mm 1 mps 712 mmHg 37%
    08:00 +32°C° 0 mm 1 mps 712 mmHg 33%
    09:00 +32°C° 0 mm 1 mps 713 mmHg 33%
    10:00 +34°C° 0 mm 2 mps 713 mmHg 34%
    11:00 +34°C° 0 mm 2 mps 713 mmHg 35%
    12:00 +34°C° 0 mm 2 mps 713 mmHg 35%
    13:00 +34°C° 0 mm 3 mps 713 mmHg 35%
    14:00 +34°C° 0 mm 3 mps 712 mmHg 35%
    15:00 +34°C° 0 mm 3 mps 712 mmHg 37%
    16:00 +33°C° 0 mm 3 mps 712 mmHg 39%
    17:00 +31°C° 0 mm 3 mps 711 mmHg 41%
    18:00 +29°C° 0 mm 3 mps 711 mmHg 49%
    19:00 +27°C° 0 mm 2 mps 711 mmHg 56%
    20:00 +26°C° 0 mm 2 mps 711 mmHg 64%
    21:00 +25°C° 0 mm 2 mps 711 mmHg 62%
    22:00 +25°C° 0 mm 2 mps 711 mmHg 59%
    23:00 +25°C° 0 mm 2 mps 711 mmHg 57%
    Show more